COSMOS 2380 (GLONASS)

Satellite information

Favourite Embed

Satellite Type and Status

PAYLOADIN ORBIT

Key statistics

Satellite COSMOS 2380 (GLONASS) at a glance.

Uptime

8620

Days in orbit

Revolutions

≈ 2.1

Per day

Orbit

MEO

Medium Earth Orbit

Inclination

63.8

Latest

Satellite identification and parameters

Extended collection of information and parameters for COSMOS 2380 (GLONASS).

Object identification

Identified? True

Debris? False

Object name: COSMOS 2380 (GLONASS)

International designator: 2001-053C

Object number (NORAD): 26989

Object ID (CCSDS): 26989

Country: COMMONWEALTH OF INDEPENDENT STATES (CIS)

Current information (Y/N): Y

RCS size: LARGE

Orbital parameters

Period: 675.73 minutes

Inclination: 63.8475 deg

SMA: 25507.944 km

Apoapsis: 19144.545 km

Periapsis: 19115.074 km

RAAN: 69.7463 deg

Eccentricy: 0.0005777

Argument of periapsis: 34.2431 deg

Mean anomaly: 146.3938 deg

Mean motion: 2.13103002 rev/day

Mean motion (dot): -0.00000059 rev/day2

B* drag term: 0.0 1/REarth

Two-line elements (TLE)

Creation date: July 5, 2025, 5:45 p.m.

Reference frame: TEME

Reference center: EARTH

Epoch: July 5, 2025, 1:33 a.m. UTC

TLE line 0: 0 COSMOS 2380 (GLONASS)

TLE line 1: 1 26989U 01053C 25186.06502839 -.00000059 00000-0 00000-0 0 9993

TLE line 2: 2 26989 63.8475 69.7463 0005777 34.2431 146.3938 2.13103002183612

Live tracking on map

Real-time ground track for satellite COSMOS 2380 (GLONASS).

In-orbit conjunctions

A list of the most updated potential collisions computed for object COSMOS 2380 (GLONASS).

Target Orbit TCA Probability of collision Miss distance Type
COSMOS 1555 (GLONASS) MEO 2025-07-03 01:00:43 TBA 4171.0 (m) PAYLOAD
COSMOS 1555 (GLONASS) MEO 2025-07-02 13:44:59 TBA 3462.0 (m) PAYLOAD
COSMOS 1555 (GLONASS) MEO 2025-07-02 02:29:15 TBA 3477.0 (m) PAYLOAD
COSMOS 1555 (GLONASS) MEO 2025-07-01 15:13:31 TBA 4306.0 (m) PAYLOAD
COSMOS 1712 (GLONASS) MEO 2025-04-12 03:42:42 TBA 2671.0 (m) PAYLOAD

Associated space launch

GLONASS navigation satellites

COSMOS 2380 (GLONASS) was lifted into orbit during the mission ‘Proton | Uragan 78, 79 & Uragan-M 1’, on board a Proton space rocket.

The launch took place on Dec. 1, 2001, 6:04 p.m. from 81/24 (81P).

For more information about the launch, click the button.

Launch to space Proton | Uragan 78, 79 & Uragan-M 1
Proton | Uragan 78, 79 & Uragan-M 1

Agency: N/A

Status: Launch Successful

Launch date: Dec. 1, 2001, 6:04 p.m. UTC

Rocket: Proton

Launch pad: 81/24 (81P)

Location: Baikonur Cosmodrome, Republic of Kazakhstan

...

Latest news about this satellite

There are no fresh news available about this satellite. Check back as we update our databases every day.


Newsletter sign-up

Weekly statistics, charts and insights to help you stay on top of the space industry.